Погода в Мандалгоби

Монголия     45°45′43″N   106°16′18″E
темп.,
°C
ветер,
м/с
пор.,
м/с
влажн.,
%
обл.,
%
осадки,
мм/ч
давл.,
гПа
погр.,
м
7 мая, пт
пт723:00+4юз113111 0.0 101410
02:00+5юз44335 0.0 101260
05:00+5зюз453148 0.0 100953
08:00+9зсз6153123 0.0 1007491
11:00+15сз11142472 0.0 10042132
14:00+18сз121417100 0.0 10022699
17:00+17ссз10131970 0.0 10012996
20:00+14с71126100 0.0 1003346
8 мая, сб
сб823:00+8св6953100 0.0 1008381
02:00+6св465910 0.0 1009230
05:00+5юв116321 0.0 101011
08:00+6ююв4450100 0.0 1011345
11:00+9ю5536100 0.0 1009582
14:00+13юз4528100 0.0 10061170
17:00+17зюз472581 0.0 10022106
20:00+13ссз6744100 0.3 1005739
9 мая, вс
вс923:00+8с71061100 0.0 1008522
02:00+6с7969100 0.0 1009496
05:00+4с7117495 0.0 1010360
08:00+6ссв71054100 0.0 1012399
11:00+11с683413 0.0 10101203
14:00+13ссз662858 0.0 10082146
17:00+14ссз77211 0.0 10082469
20:00+12ссв34280 0.0 100996
10 мая, пн
пн1023:00+9вюв22365 0.0 101012
02:00+9юз44364 0.0 101064
05:00+8зюз45550 0.0 101071
08:00+11зюз61145100 0.0 1009519
11:00+16зюз7824100 0.0 10072191
14:00+18зюз91220100 0.0 10033609
17:00+20з11131385 0.0 9993978
20:00+12с10124399 0.0 1004831
11 мая, вт
вт1123:00+8ссв9135099 0.0 1008544
02:00+6св4847100 0.0 1010345
05:00+4с45485 0.0 1011122
08:00+6с45337 0.0 1011323
11:00+9ссз3425100 0.0 1010993
14:00+12сз4621100 0.0 10071757
17:00+14сз5621100 0.0 10062004
20:00+12ссв6725100 0.0 1006395